Tracking 25734 objects as of 26-May-2022
HD Live streaming from Space Station
objects crossing your sky now

COSMOS 407

Track COSMOS 407 now!
10-day predictions
COSMOS 407 is classified as:


NORAD ID: 5174
Int'l Code: 1971-035A
Perigee: 774.9 km
Apogee: 800.3 km
Inclination: 74.0 °
Period: 100.5 minutes
Semi major axis: 7158 km
RCS: 2.2662 m2 (large)
Launch date: April 23, 1971
Source: Commonwealth of Independent States (former USSR) (CIS)
Launch site: PLESETSK MISSILE AND SPACE COMPLEX (PKMTR)
aabbcc
Your satellite tracking list
Your tracking list is empty




NASA's NSSDC Master Catalog

Two Line Element Set (TLE):
1 05174U 71035A   22145.85210458  .00000178  00000-0  73888-4 0  9994
2 05174  74.0437 302.4595 0017750 129.0901 231.1833 14.33372041667990
Source of the keplerian elements: AFSPC